* Astronomy

Members Login
Username 
 
Password 
    Remember Me  
Post Info TOPIC: Asteroid 2012 VJ6


L

Posts: 131433
Date:
Asteroid 2012 VJ6
Permalink  
 


Orbital elements:
2012 VJ6                                                 Earth MOID = 0.0640 AU
Epoch 2012 Sept. 30.0 TT = JDT 2456200.5                MPC
M 321.57180              (2000.0)            P               Q
n   0.21089973     Peri.  157.10891     -0.95160827     -0.30710743
a   2.7952374      Node     5.04621     +0.25842804     -0.81951806
e   0.7026640      Incl.    7.35309     +0.16630288     -0.48381316
P   4.67           H   18.6           G   0.15           U   9

MPEC 2012 - V29



__________________
Page 1 of 1  sorted by
 
Quick Reply

Please log in to post quick replies.



Create your own FREE Forum
Report Abuse
Powered by ActiveBoard